Time,TemperatureF,DewpointF,PressureIn,WindDirection,WindDirectionDegrees,WindSpeedMPH,WindSpeedGustMPH,Humidity,HourlyPrecipIn,Conditions,Clouds,dailyrainin,SoftwareType,DateUTC
2013-03-31 00:00:00,54.0,27.6,29.74,South,184,2.7,2.7,36,0.00,,---,0.00,VWS V14.01,2013-03-31 04:00:00,
2013-03-31 00:05:00,53.8,27.5,29.74,South,191,2.2,3.1,36,0.00,,---,0.00,VWS V14.01,2013-03-31 04:05:00,
2013-03-31 00:10:00,54.0,27.6,29.74,SSW,202,2.7,3.1,36,0.00,,---,0.00,VWS V14.01,2013-03-31 04:10:00,
2013-03-31 00:17:00,53.8,28.1,29.74,South,176,3.1,3.1,37,0.00,,---,0.00,VWS V14.01,2013-03-31 04:17:00,
2013-03-31 00:22:00,53.8,28.1,29.74,SSW,198,2.2,2.2,37,0.00,,---,0.00,VWS V14.01,2013-03-31 04:22:00,
2013-03-31 00:27:00,53.4,27.8,29.74,South,190,2.7,3.1,37,0.00,,---,0.00,VWS V14.01,2013-03-31 04:27:00,
2013-03-31 00:32:00,53.4,27.8,29.74,South,186,2.2,2.2,37,0.00,,---,0.00,VWS V14.01,2013-03-31 04:32:00,
2013-03-31 00:37:00,53.4,27.8,29.74,South,176,2.2,2.7,37,0.00,,---,0.00,VWS V14.01,2013-03-31 04:37:00,
2013-03-31 00:42:00,53.2,28.3,29.74,SSW,194,2.7,2.7,38,0.00,,---,0.00,VWS V14.01,2013-03-31 04:42:00,
2013-03-31 00:47:00,53.2,28.3,29.74,SSW,197,2.7,2.7,38,0.00,,---,0.00,VWS V14.01,2013-03-31 04:47:00,
2013-03-31 00:52:00,52.9,28.0,29.74,SSW,197,0.0,0.0,38,0.00,,---,0.00,VWS V14.01,2013-03-31 04:52:00,
2013-03-31 00:57:00,53.1,28.1,29.74,South,182,2.2,2.2,38,0.00,,---,0.00,VWS V14.01,2013-03-31 04:57:00,
2013-03-31 01:02:00,52.9,28.0,29.74,South,182,0.0,0.0,38,0.00,,---,0.00,VWS V14.01,2013-03-31 05:02:00,
2013-03-31 01:07:00,52.9,28.0,29.74,South,182,0.0,0.0,38,0.00,,---,0.00,VWS V14.01,2013-03-31 05:07:00,
2013-03-31 01:12:00,52.7,27.8,29.74,South,182,0.0,0.0,38,0.00,,---,0.00,VWS V14.01,2013-03-31 05:12:00,
2013-03-31 01:17:00,52.5,28.3,29.74,South,182,0.0,0.0,39,0.00,,---,0.00,VWS V14.01,2013-03-31 05:17:00,
2013-03-31 01:22:00,52.5,28.3,29.74,South,181,0.0,0.0,39,0.00,,---,0.00,VWS V14.01,2013-03-31 05:22:00,
2013-03-31 01:27:00,52.3,28.1,29.74,SSW,194,2.2,2.7,39,0.00,,---,0.00,VWS V14.01,2013-03-31 05:27:00,
2013-03-31 01:32:00,52.3,28.1,29.74,SSW,194,2.2,2.7,39,0.00,,---,0.00,VWS V14.01,2013-03-31 05:32:00,
2013-03-31 01:37:00,52.3,28.1,29.74,SSW,196,3.6,3.6,39,0.00,,---,0.00,VWS V14.01,2013-03-31 05:37:00,
2013-03-31 01:42:00,52.5,28.3,29.71,SSW,195,3.1,3.1,39,0.00,,---,0.00,VWS V14.01,2013-03-31 05:42:00,
2013-03-31 01:47:00,52.5,28.3,29.71,South,176,2.2,2.7,39,0.00,,---,0.00,VWS V14.01,2013-03-31 05:47:00,
2013-03-31 01:52:00,52.3,28.1,29.71,South,171,3.1,3.1,39,0.00,,---,0.00,VWS V14.01,2013-03-31 05:52:00,
2013-03-31 01:57:00,52.3,28.1,29.71,South,169,2.7,2.7,39,0.00,,---,0.00,VWS V14.01,2013-03-31 05:57:00,
2013-03-31 02:02:00,52.3,28.1,29.71,South,187,2.7,2.7,39,0.00,,---,0.00,VWS V14.01,2013-03-31 06:02:00,
2013-03-31 02:07:00,52.3,27.5,29.71,South,170,2.7,4.0,38,0.00,,---,0.00,VWS V14.01,2013-03-31 06:07:00,
2013-03-31 02:12:00,52.2,27.3,29.71,SSW,204,2.2,2.2,38,0.00,,---,0.00,VWS V14.01,2013-03-31 06:12:00,
2013-03-31 02:17:00,52.2,27.3,29.71,South,178,0.0,2.7,38,0.00,,---,0.00,VWS V14.01,2013-03-31 06:17:00,
2013-03-31 02:22:00,52.2,27.3,29.71,SSE,168,3.1,3.1,38,0.00,,---,0.00,VWS V14.01,2013-03-31 06:22:00,
2013-03-31 02:27:00,52.0,27.2,29.71,South,186,2.7,3.6,38,0.00,,---,0.00,VWS V14.01,2013-03-31 06:27:00,
2013-03-31 02:32:00,52.0,27.2,29.71,South,182,0.0,4.0,38,0.00,,---,0.00,VWS V14.01,2013-03-31 06:32:00,
2013-03-31 02:37:00,51.8,27.0,29.71,SSW,195,0.0,2.7,38,0.00,,---,0.00,VWS V14.01,2013-03-31 06:37:00,
2013-03-31 02:42:00,51.6,27.5,29.71,South,180,0.0,2.7,39,0.00,,---,0.00,VWS V14.01,2013-03-31 06:42:00,
2013-03-31 02:47:00,51.6,27.5,29.71,South,191,0.0,2.2,39,0.00,,---,0.00,VWS V14.01,2013-03-31 06:47:00,
2013-03-31 02:52:00,51.6,27.5,29.71,South,182,2.7,3.1,39,0.00,,---,0.00,VWS V14.01,2013-03-31 06:52:00,
2013-03-31 02:57:00,51.6,27.5,29.71,South,175,2.7,2.7,39,0.00,,---,0.00,VWS V14.01,2013-03-31 06:57:00,
2013-03-31 03:02:00,51.6,27.5,29.71,SSW,204,2.7,2.7,39,0.00,,---,0.00,VWS V14.01,2013-03-31 07:02:00,
2013-03-31 03:07:00,51.4,26.7,29.71,South,178,0.0,2.7,38,0.00,,---,0.00,VWS V14.01,2013-03-31 07:07:00,
2013-03-31 03:12:00,51.4,26.7,29.68,SSW,203,0.0,0.0,38,0.00,,---,0.00,VWS V14.01,2013-03-31 07:12:00,
2013-03-31 03:17:00,51.4,26.7,29.68,South,181,3.1,3.1,38,0.00,,---,0.00,VWS V14.01,2013-03-31 07:17:00,
2013-03-31 03:22:00,51.4,26.7,29.68,South,178,2.2,2.7,38,0.00,,---,0.00,VWS V14.01,2013-03-31 07:22:00,
2013-03-31 03:27:00,51.3,26.5,29.68,SSW,201,0.0,4.0,38,0.00,,---,0.00,VWS V14.01,2013-03-31 07:27:00,
2013-03-31 03:32:00,51.3,26.5,29.68,SSW,201,0.0,2.2,38,0.00,,---,0.00,VWS V14.01,2013-03-31 07:32:00,
2013-03-31 03:37:00,51.1,26.4,29.68,SSW,201,2.7,2.7,38,0.00,,---,0.00,VWS V14.01,2013-03-31 07:37:00,
2013-03-31 03:42:00,51.1,26.4,29.68,SSW,195,2.7,2.7,38,0.00,,---,0.00,VWS V14.01,2013-03-31 07:42:00,
2013-03-31 03:47:00,51.1,26.4,29.68,SE,135,0.0,0.0,38,0.00,,---,0.00,VWS V14.01,2013-03-31 07:47:00,
2013-03-31 03:52:00,51.1,26.4,29.68,South,189,0.0,0.0,38,0.00,,---,0.00,VWS V14.01,2013-03-31 07:52:00,
2013-03-31 03:57:00,51.1,26.4,29.65,SE,146,3.1,3.1,38,0.00,,---,0.00,VWS V14.01,2013-03-31 07:57:00,
2013-03-31 04:02:00,50.9,26.2,29.65,South,172,2.2,2.7,38,0.00,,---,0.00,VWS V14.01,2013-03-31 08:02:00,
2013-03-31 04:07:00,51.1,26.4,29.65,SSW,203,3.1,3.1,38,0.00,,---,0.00,VWS V14.01,2013-03-31 08:07:00,
2013-03-31 04:12:00,51.1,26.4,29.65,South,178,2.7,4.9,38,0.00,,---,0.00,VWS V14.01,2013-03-31 08:12:00,
2013-03-31 04:17:00,51.3,26.5,29.65,South,189,3.1,3.1,38,0.00,,---,0.00,VWS V14.01,2013-03-31 08:17:00,
2013-03-31 04:22:00,51.4,26.7,29.65,SSW,199,2.7,3.1,38,0.00,,---,0.00,VWS V14.01,2013-03-31 08:22:00,
2013-03-31 04:27:00,51.4,26.7,29.65,SE,134,3.1,3.6,38,0.00,,---,0.00,VWS V14.01,2013-03-31 08:27:00,
2013-03-31 04:32:00,51.4,26.0,29.65,South,187,3.1,3.1,37,0.00,,---,0.00,VWS V14.01,2013-03-31 08:32:00,
2013-03-31 04:37:00,51.3,26.5,29.65,SSE,148,3.1,3.6,38,0.00,,---,0.00,VWS V14.01,2013-03-31 08:37:00,
2013-03-31 04:42:00,51.3,26.5,29.65,South,178,3.1,4.9,38,0.00,,---,0.00,VWS V14.01,2013-03-31 08:42:00,
2013-03-31 04:47:00,51.1,26.4,29.65,SSW,193,2.7,4.0,38,0.00,,---,0.00,VWS V14.01,2013-03-31 08:47:00,
2013-03-31 04:52:00,51.1,26.4,29.65,SSW,201,2.2,3.6,38,0.00,,---,0.00,VWS V14.01,2013-03-31 08:52:00,
2013-03-31 04:57:00,51.1,26.4,29.62,SSE,147,2.7,2.7,38,0.00,,---,0.00,VWS V14.01,2013-03-31 08:57:00,
2013-03-31 05:02:00,51.1,26.4,29.62,SSE,159,0.0,3.1,38,0.00,,---,0.00,VWS V14.01,2013-03-31 09:02:00,
2013-03-31 05:07:00,51.1,26.4,29.62,South,185,3.1,4.0,38,0.00,,---,0.00,VWS V14.01,2013-03-31 09:07:00,
2013-03-31 05:12:00,51.1,26.4,29.62,South,186,3.1,3.6,38,0.00,,---,0.00,VWS V14.01,2013-03-31 09:12:00,
2013-03-31 05:17:00,51.3,26.5,29.62,SSE,149,3.6,3.6,38,0.00,,---,0.00,VWS V14.01,2013-03-31 09:17:00,
2013-03-31 05:22:00,51.3,26.5,29.62,South,184,2.2,2.7,38,0.00,,---,0.00,VWS V14.01,2013-03-31 09:22:00,
2013-03-31 05:27:00,51.3,26.5,29.62,SSW,198,2.2,3.6,38,0.00,,---,0.00,VWS V14.01,2013-03-31 09:27:00,
2013-03-31 05:32:00,51.3,26.5,29.62,SSE,159,2.7,4.0,38,0.00,,---,0.00,VWS V14.01,2013-03-31 09:32:00,
2013-03-31 05:37:00,51.3,26.5,29.62,South,177,2.7,2.7,38,0.00,,---,0.00,VWS V14.01,2013-03-31 09:37:00,
2013-03-31 05:42:00,51.3,26.5,29.62,SSW,200,0.0,3.1,38,0.00,,---,0.00,VWS V14.01,2013-03-31 09:42:00,
2013-03-31 05:47:00,51.3,26.5,29.62,South,187,2.2,2.7,38,0.00,,---,0.00,VWS V14.01,2013-03-31 09:47:00,
2013-03-31 05:52:00,51.3,27.2,29.62,SSW,210,0.0,2.7,39,0.00,,---,0.00,VWS V14.01,2013-03-31 09:52:00,
2013-03-31 05:57:00,50.9,27.5,29.65,SSW,210,0.0,0.0,40,0.00,,---,0.00,VWS V14.01,2013-03-31 09:57:00,
2013-03-31 06:02:00,50.4,27.6,29.65,SSW,210,0.0,0.0,41,0.00,,---,0.00,VWS V14.01,2013-03-31 10:02:00,
2013-03-31 06:07:00,49.6,28.6,29.65,SSW,210,0.0,0.0,44,0.00,,---,0.00,VWS V14.01,2013-03-31 10:07:00,
2013-03-31 06:12:00,49.3,29.4,29.65,SSW,210,0.0,0.0,46,0.04,,---,0.04,VWS V14.01,2013-03-31 10:12:00,
2013-03-31 06:17:00,48.9,29.6,29.65,SSW,210,0.0,0.0,47,0.04,,---,0.04,VWS V14.01,2013-03-31 10:17:00,
2013-03-31 06:22:00,48.7,29.9,29.65,SSW,210,0.0,0.0,48,0.04,,---,0.04,VWS V14.01,2013-03-31 10:22:00,
2013-03-31 06:27:00,48.6,30.8,29.65,SSW,210,0.0,0.0,50,0.04,,---,0.04,VWS V14.01,2013-03-31 10:27:00,
2013-03-31 06:32:00,48.4,32.0,29.65,SSW,210,0.0,0.0,53,0.04,,---,0.04,VWS V14.01,2013-03-31 10:32:00,
2013-03-31 06:37:00,48.4,33.9,29.65,SSW,210,0.0,0.0,57,0.04,,---,0.04,VWS V14.01,2013-03-31 10:37:00,
2013-03-31 06:42:00,48.2,35.0,29.65,SSW,210,0.0,0.0,60,0.08,,---,0.08,VWS V14.01,2013-03-31 10:42:00,
2013-03-31 06:47:00,48.2,35.8,29.65,SSW,210,0.0,0.0,62,0.08,,---,0.08,VWS V14.01,2013-03-31 10:47:00,
2013-03-31 06:52:00,48.2,36.6,29.65,SSW,210,0.0,0.0,64,0.08,,---,0.08,VWS V14.01,2013-03-31 10:52:00,
2013-03-31 06:57:00,48.2,37.0,29.65,SSW,210,0.0,0.0,65,0.08,,---,0.08,VWS V14.01,2013-03-31 10:57:00,
2013-03-31 07:02:00,48.0,37.2,29.65,SSW,210,0.0,0.0,66,0.08,,---,0.08,VWS V14.01,2013-03-31 11:02:00,
2013-03-31 07:07:00,48.0,37.6,29.65,SSW,204,0.0,2.7,67,0.12,,---,0.12,VWS V14.01,2013-03-31 11:07:00,
2013-03-31 07:12:00,48.0,38.0,29.65,SSW,204,0.0,0.0,68,0.08,,---,0.12,VWS V14.01,2013-03-31 11:12:00,
2013-03-31 07:17:00,47.8,37.8,29.65,SSW,200,2.7,2.7,68,0.08,,---,0.12,VWS V14.01,2013-03-31 11:17:00,
2013-03-31 07:22:00,47.8,37.8,29.65,SSW,200,0.0,0.0,68,0.08,,---,0.12,VWS V14.01,2013-03-31 11:22:00,
2013-03-31 07:27:00,47.8,38.2,29.62,SSW,200,0.0,0.0,69,0.12,,---,0.16,VWS V14.01,2013-03-31 11:27:00,
2013-03-31 07:32:00,48.0,38.3,29.62,SSW,200,2.2,2.2,69,0.12,,---,0.16,VWS V14.01,2013-03-31 11:32:00,
2013-03-31 07:37:00,48.0,39.1,29.62,SSW,200,2.7,3.1,71,0.12,,---,0.16,VWS V14.01,2013-03-31 11:37:00,
2013-03-31 07:42:00,48.0,39.1,29.62,SW,222,0.0,2.2,71,0.12,,---,0.20,VWS V14.01,2013-03-31 11:42:00,
2013-03-31 07:47:00,48.2,39.2,29.62,SE,137,0.0,2.2,71,0.12,,---,0.20,VWS V14.01,2013-03-31 11:47:00,
2013-03-31 07:52:00,48.2,39.6,29.62,SSW,199,2.2,4.0,72,0.12,,---,0.20,VWS V14.01,2013-03-31 11:52:00,
2013-03-31 07:57:00,48.4,40.1,29.62,SSW,204,3.1,3.1,73,0.12,,---,0.20,VWS V14.01,2013-03-31 11:57:00,
2013-03-31 08:02:00,48.4,40.1,29.62,SSW,193,3.6,3.6,73,0.16,,---,0.24,VWS V14.01,2013-03-31 12:02:00,
2013-03-31 08:07:00,48.6,40.7,29.62,SSE,164,4.0,4.0,74,0.12,,---,0.24,VWS V14.01,2013-03-31 12:07:00,
2013-03-31 08:12:00,48.6,41.0,29.59,South,169,2.2,3.6,75,0.12,,---,0.24,VWS V14.01,2013-03-31 12:12:00,
2013-03-31 08:17:00,48.7,41.2,29.59,West,279,0.0,3.6,75,0.12,,---,0.24,VWS V14.01,2013-03-31 12:17:00,
2013-03-31 08:22:00,48.7,41.2,29.59,SSW,211,3.1,3.6,75,0.12,,---,0.24,VWS V14.01,2013-03-31 12:22:00,
2013-03-31 08:27:00,48.9,41.4,29.62,South,179,3.6,3.6,75,0.08,,---,0.24,VWS V14.01,2013-03-31 12:27:00,
2013-03-31 08:32:00,48.9,41.7,29.62,SW,230,3.1,3.6,76,0.08,,---,0.24,VWS V14.01,2013-03-31 12:32:00,
2013-03-31 08:37:00,49.3,42.0,29.62,South,183,2.2,4.0,76,0.08,,---,0.24,VWS V14.01,2013-03-31 12:37:00,
2013-03-31 08:42:00,49.5,42.2,29.62,SSW,198,4.9,4.9,76,0.04,,---,0.24,VWS V14.01,2013-03-31 12:42:00,
2013-03-31 08:47:00,49.5,42.6,29.62,SSW,206,0.0,3.6,77,0.04,,---,0.24,VWS V14.01,2013-03-31 12:47:00,
2013-03-31 08:52:00,49.6,42.7,29.62,SSW,208,2.2,2.2,77,0.04,,---,0.24,VWS V14.01,2013-03-31 12:52:00,
2013-03-31 08:58:00,49.6,42.7,29.62,SSE,166,2.7,2.7,77,0.04,,---,0.24,VWS V14.01,2013-03-31 12:58:00,
2013-03-31 09:03:00,49.6,43.1,29.62,South,187,2.2,3.1,78,0.00,,---,0.24,VWS V14.01,2013-03-31 13:03:00,
2013-03-31 09:08:00,49.8,43.2,29.62,SSW,202,0.0,2.7,78,0.00,,---,0.24,VWS V14.01,2013-03-31 13:08:00,
2013-03-31 09:13:00,49.8,43.2,29.59,SSW,194,2.7,5.4,78,0.00,,---,0.24,VWS V14.01,2013-03-31 13:13:00,
2013-03-31 09:17:00,50.0,43.4,29.59,South,188,2.2,4.0,78,0.00,,---,0.24,VWS V14.01,2013-03-31 13:17:00,
2013-03-31 09:22:00,50.2,43.6,29.59,SSW,198,0.0,2.7,78,0.00,,---,0.24,VWS V14.01,2013-03-31 13:22:00,
2013-03-31 09:27:00,50.7,44.5,29.59,SSW,196,2.2,2.7,79,0.00,,---,0.24,VWS V14.01,2013-03-31 13:27:00,
2013-03-31 09:32:00,51.3,45.0,29.59,SSW,210,2.7,2.7,79,0.00,,---,0.24,VWS V14.01,2013-03-31 13:32:00,
2013-03-31 09:37:00,51.6,45.3,29.59,SSW,204,3.6,4.0,79,0.00,,---,0.24,VWS V14.01,2013-03-31 13:37:00,
2013-03-31 09:43:00,51.8,45.5,29.59,SSW,208,4.0,4.0,79,0.00,,---,0.24,VWS V14.01,2013-03-31 13:43:00,
2013-03-31 09:48:00,52.0,45.7,29.59,South,173,2.7,3.1,79,0.00,,---,0.24,VWS V14.01,2013-03-31 13:48:00,
2013-03-31 09:53:00,52.2,45.8,29.59,SW,236,4.0,4.0,79,0.00,,---,0.24,VWS V14.01,2013-03-31 13:53:00,
2013-03-31 09:58:00,52.5,46.2,29.59,SSW,210,0.0,2.7,79,0.00,,---,0.24,VWS V14.01,2013-03-31 13:58:00,
2013-03-31 10:03:00,53.6,47.3,29.59,SSW,202,0.0,3.6,79,0.00,,---,0.24,VWS V14.01,2013-03-31 14:03:00,
2013-03-31 10:08:00,54.7,48.6,29.59,SSW,204,0.0,3.1,80,0.04,,---,0.28,VWS V14.01,2013-03-31 14:08:00,
2013-03-31 10:13:00,55.6,49.2,29.59,SW,223,3.1,3.6,79,0.04,,---,0.28,VWS V14.01,2013-03-31 14:13:00,
2013-03-31 10:18:00,56.1,48.3,29.59,SSW,206,4.0,4.0,75,0.04,,---,0.28,VWS V14.01,2013-03-31 14:18:00,
2013-03-31 10:23:00,56.5,46.8,29.59,SW,228,4.0,4.9,70,0.04,,---,0.28,VWS V14.01,2013-03-31 14:23:00,
2013-03-31 10:28:00,56.7,44.2,29.56,South,187,5.4,7.2,63,0.04,,---,0.28,VWS V14.01,2013-03-31 14:28:00,
2013-03-31 10:33:00,57.2,43.9,29.56,SW,236,5.4,5.4,61,0.04,,---,0.28,VWS V14.01,2013-03-31 14:33:00,
2013-03-31 10:38:00,57.6,42.9,29.56,SW,219,3.1,3.6,58,0.04,,---,0.28,VWS V14.01,2013-03-31 14:38:00,
2013-03-31 10:43:00,57.9,41.4,29.56,SSW,199,2.7,3.6,54,0.04,,---,0.28,VWS V14.01,2013-03-31 14:43:00,
2013-03-31 10:48:00,58.3,43.1,29.56,WSW,241,2.7,3.1,57,0.04,,---,0.28,VWS V14.01,2013-03-31 14:48:00,
2013-03-31 10:53:00,58.6,42.1,29.56,SW,231,3.1,4.0,54,0.04,,---,0.28,VWS V14.01,2013-03-31 14:53:00,
2013-03-31 10:58:00,58.6,40.6,29.56,SW,214,3.6,4.9,51,0.04,,---,0.28,VWS V14.01,2013-03-31 14:58:00,
2013-03-31 11:03:00,58.8,41.2,29.56,SSW,203,2.7,3.6,52,0.04,,---,0.28,VWS V14.01,2013-03-31 15:03:00,
2013-03-31 11:08:00,59.2,41.6,29.56,SSW,198,2.7,4.0,52,0.00,,---,0.28,VWS V14.01,2013-03-31 15:08:00,
2013-03-31 11:13:00,59.5,41.4,29.56,WSW,239,3.6,3.6,51,0.00,,---,0.28,VWS V14.01,2013-03-31 15:13:00,
2013-03-31 11:18:00,59.9,40.2,29.56,SW,233,4.0,4.0,48,0.00,,---,0.28,VWS V14.01,2013-03-31 15:18:00,
2013-03-31 11:23:00,60.1,40.3,29.56,SW,214,3.6,4.9,48,0.00,,---,0.28,VWS V14.01,2013-03-31 15:23:00,
2013-03-31 11:28:00,61.0,41.2,29.56,SW,221,5.4,5.4,48,0.00,,---,0.28,VWS V14.01,2013-03-31 15:28:00,
2013-03-31 11:33:00,61.9,40.3,29.56,SSW,206,3.1,7.6,45,0.00,,---,0.28,VWS V14.01,2013-03-31 15:33:00,
2013-03-31 11:38:00,62.1,40.5,29.56,WSW,238,2.7,4.0,45,0.00,,---,0.28,VWS V14.01,2013-03-31 15:38:00,
2013-03-31 11:43:00,62.2,40.1,29.56,SW,223,2.7,3.6,44,0.00,,---,0.28,VWS V14.01,2013-03-31 15:43:00,
2013-03-31 11:48:00,63.0,40.1,29.56,SW,221,0.0,4.0,43,0.00,,---,0.28,VWS V14.01,2013-03-31 15:48:00,
2013-03-31 11:53:00,63.9,41.0,29.56,SW,219,2.7,4.0,43,0.00,,---,0.28,VWS V14.01,2013-03-31 15:53:00,
2013-03-31 11:58:00,65.3,40.4,29.56,WSW,257,3.1,4.0,40,0.00,,---,0.28,VWS V14.01,2013-03-31 15:58:00,
2013-03-31 12:03:00,66.0,39.0,29.56,SW,218,3.1,4.9,37,0.00,,---,0.28,VWS V14.01,2013-03-31 16:03:00,
2013-03-31 12:08:00,66.0,39.0,29.56,North,353,0.0,2.7,37,0.00,,---,0.28,VWS V14.01,2013-03-31 16:08:00,
2013-03-31 12:13:00,65.7,38.0,29.56,WSW,240,2.7,3.1,36,0.00,,---,0.28,VWS V14.01,2013-03-31 16:13:00,
2013-03-31 12:18:00,65.1,37.5,29.56,WSW,256,2.7,3.6,36,0.00,,---,0.28,VWS V14.01,2013-03-31 16:18:00,
2013-03-31 12:23:00,64.2,37.4,29.56,SW,225,3.1,3.6,37,0.00,,---,0.28,VWS V14.01,2013-03-31 16:23:00,
2013-03-31 12:28:00,63.9,37.8,29.53,West,263,0.0,0.0,38,0.00,,---,0.28,VWS V14.01,2013-03-31 16:28:00,
2013-03-31 12:32:00,63.5,37.5,29.53,SSW,205,0.0,0.0,38,0.00,,---,0.28,VWS V14.01,2013-03-31 16:32:00,
2013-03-31 12:37:00,63.1,37.1,29.53,WSW,251,0.0,2.7,38,0.00,,---,0.28,VWS V14.01,2013-03-31 16:37:00,
2013-03-31 12:42:00,63.0,37.0,29.53,SW,230,0.0,2.7,38,0.00,,---,0.28,VWS V14.01,2013-03-31 16:42:00,
2013-03-31 12:47:00,63.0,37.0,29.53,SW,230,2.2,2.7,38,0.00,,---,0.28,VWS V14.01,2013-03-31 16:47:00,
2013-03-31 12:52:00,63.3,38.0,29.53,WSW,241,0.0,0.0,39,0.00,,---,0.28,VWS V14.01,2013-03-31 16:52:00,
2013-03-31 12:57:00,64.6,39.1,29.53,WSW,245,2.7,2.7,39,0.00,,---,0.28,VWS V14.01,2013-03-31 16:57:00,
2013-03-31 13:02:00,66.0,37.6,29.53,SSW,199,3.6,4.9,35,0.00,,---,0.28,VWS V14.01,2013-03-31 17:02:00,
2013-03-31 13:07:00,67.1,38.6,29.53,SSW,205,3.6,3.6,35,0.00,,---,0.28,VWS V14.01,2013-03-31 17:07:00,
2013-03-31 13:12:00,67.8,37.7,29.53,WSW,240,2.7,4.0,33,0.00,,---,0.28,VWS V14.01,2013-03-31 17:12:00,
2013-03-31 13:17:00,68.4,38.2,29.53,SSW,202,3.1,5.8,33,0.00,,---,0.28,VWS V14.01,2013-03-31 17:17:00,
2013-03-31 13:22:00,68.2,38.0,29.53,SW,225,3.1,3.6,33,0.00,,---,0.28,VWS V14.01,2013-03-31 17:22:00,
2013-03-31 13:27:00,67.5,37.4,29.53,SSW,209,2.2,3.6,33,0.00,,---,0.28,VWS V14.01,2013-03-31 17:27:00,
2013-03-31 13:32:00,67.1,37.1,29.53,SSW,201,4.9,4.9,33,0.00,,---,0.28,VWS V14.01,2013-03-31 17:32:00,
2013-03-31 13:37:00,66.9,36.9,29.53,SW,232,2.7,2.7,33,0.00,,---,0.28,VWS V14.01,2013-03-31 17:37:00,
2013-03-31 13:43:00,66.7,36.8,29.50,WSW,243,4.0,4.0,33,0.00,,---,0.28,VWS V14.01,2013-03-31 17:43:00,
2013-03-31 13:48:00,66.2,36.3,29.50,SW,230,4.0,4.0,33,0.00,,---,0.28,VWS V14.01,2013-03-31 17:48:00,
2013-03-31 13:53:00,65.7,36.6,29.50,SW,216,3.6,3.6,34,0.00,,---,0.28,VWS V14.01,2013-03-31 17:53:00,
2013-03-31 13:58:00,65.1,36.8,29.50,SW,225,0.0,0.0,35,0.00,,---,0.28,VWS V14.01,2013-03-31 17:58:00,
2013-03-31 14:03:00,64.9,36.7,29.50,WSW,253,3.6,4.0,35,0.00,,---,0.28,VWS V14.01,2013-03-31 18:03:00,
2013-03-31 14:08:00,65.1,36.8,29.50,SW,214,0.0,3.6,35,0.00,,---,0.28,VWS V14.01,2013-03-31 18:08:00,
2013-03-31 14:13:00,64.9,37.4,29.50,WSW,248,2.7,3.6,36,0.00,,---,0.28,VWS V14.01,2013-03-31 18:13:00,
2013-03-31 14:18:00,65.3,37.0,29.50,WSW,254,2.7,4.0,35,0.00,,---,0.28,VWS V14.01,2013-03-31 18:18:00,
2013-03-31 14:23:00,65.7,37.3,29.50,WSW,243,2.7,2.7,35,0.00,,---,0.28,VWS V14.01,2013-03-31 18:23:00,
2013-03-31 14:28:00,65.7,37.3,29.50,WSW,240,2.7,3.6,35,0.00,,---,0.28,VWS V14.01,2013-03-31 18:28:00,
2013-03-31 14:33:00,65.5,37.1,29.50,WSW,258,0.0,5.4,35,0.00,,---,0.28,VWS V14.01,2013-03-31 18:33:00,
2013-03-31 14:38:00,65.5,37.1,29.50,SSW,210,3.1,3.1,35,0.00,,---,0.28,VWS V14.01,2013-03-31 18:38:00,
2013-03-31 14:43:00,65.3,37.0,29.50,WSW,237,2.2,3.6,35,0.00,,---,0.28,VWS V14.01,2013-03-31 18:43:00,
2013-03-31 14:48:00,65.3,37.0,29.50,South,179,2.2,3.1,35,0.00,,---,0.28,VWS V14.01,2013-03-31 18:48:00,
2013-03-31 14:53:00,65.5,37.1,29.50,WSW,238,0.0,2.7,35,0.00,,---,0.28,VWS V14.01,2013-03-31 18:53:00,
2013-03-31 14:58:00,65.8,37.5,29.50,WSW,243,0.0,0.0,35,0.00,,---,0.28,VWS V14.01,2013-03-31 18:58:00,
2013-03-31 15:03:00,66.0,37.6,29.50,WSW,239,3.1,3.1,35,0.00,,---,0.28,VWS V14.01,2013-03-31 19:03:00,
2013-03-31 15:08:00,66.4,37.9,29.50,WSW,257,3.6,3.6,35,0.00,,---,0.28,VWS V14.01,2013-03-31 19:08:00,
2013-03-31 15:13:00,66.6,37.3,29.47,WSW,241,0.0,3.6,34,0.00,,---,0.28,VWS V14.01,2013-03-31 19:13:00,
2013-03-31 15:18:00,66.9,37.7,29.47,South,183,3.1,3.1,34,0.00,,---,0.28,VWS V14.01,2013-03-31 19:18:00,
2013-03-31 15:23:00,67.1,37.8,29.47,WSW,254,4.0,5.8,34,0.00,,---,0.28,VWS V14.01,2013-03-31 19:23:00,
2013-03-31 15:28:00,67.1,37.1,29.47,SW,235,2.7,4.0,33,0.00,,---,0.28,VWS V14.01,2013-03-31 19:28:00,
2013-03-31 15:33:00,67.3,37.2,29.47,WSW,243,3.1,3.1,33,0.00,,---,0.28,VWS V14.01,2013-03-31 19:33:00,
2013-03-31 15:38:00,67.6,37.5,29.47,SW,225,3.1,3.6,33,0.00,,---,0.28,VWS V14.01,2013-03-31 19:38:00,
2013-03-31 15:43:00,68.2,38.0,29.47,SW,214,2.7,4.0,33,0.00,,---,0.28,VWS V14.01,2013-03-31 19:43:00,
2013-03-31 15:48:00,68.4,37.4,29.47,North,357,3.1,3.1,32,0.00,,---,0.28,VWS V14.01,2013-03-31 19:48:00,
2013-03-31 15:53:00,68.5,37.5,29.47,WSW,247,2.7,3.1,32,0.00,,---,0.28,VWS V14.01,2013-03-31 19:53:00,
2013-03-31 15:58:00,68.4,37.4,29.47,WSW,247,0.0,3.1,32,0.00,,---,0.28,VWS V14.01,2013-03-31 19:58:00,
2013-03-31 16:03:00,68.5,37.5,29.47,WSW,251,2.7,5.4,32,0.00,,---,0.28,VWS V14.01,2013-03-31 20:03:00,
2013-03-31 16:08:00,68.7,37.7,29.47,West,261,2.7,2.7,32,0.00,,---,0.28,VWS V14.01,2013-03-31 20:08:00,
2013-03-31 16:13:00,68.7,37.7,29.47,SW,231,5.4,5.8,32,0.00,,---,0.28,VWS V14.01,2013-03-31 20:13:00,
2013-03-31 16:18:00,68.5,37.5,29.47,SW,236,4.0,4.9,32,0.00,,---,0.28,VWS V14.01,2013-03-31 20:18:00,
2013-03-31 16:23:00,68.4,37.4,29.47,WSW,249,0.0,0.0,32,0.00,,---,0.28,VWS V14.01,2013-03-31 20:23:00,
2013-03-31 16:28:00,68.5,37.5,29.50,WSW,245,3.1,5.4,32,0.00,,---,0.28,VWS V14.01,2013-03-31 20:28:00,
2013-03-31 16:33:00,68.7,37.7,29.50,NW,306,0.0,0.0,32,0.00,,---,0.28,VWS V14.01,2013-03-31 20:33:00,
2013-03-31 16:38:00,69.1,38.0,29.50,NNE,30,2.7,2.7,32,0.00,,---,0.28,VWS V14.01,2013-03-31 20:38:00,
2013-03-31 16:43:00,69.3,37.4,29.47,West,276,0.0,3.6,31,0.00,,---,0.28,VWS V14.01,2013-03-31 20:43:00,
2013-03-31 16:48:00,69.4,37.5,29.47,WSW,238,0.0,2.2,31,0.00,,---,0.28,VWS V14.01,2013-03-31 20:48:00,
2013-03-31 16:53:00,69.1,36.4,29.47,West,267,2.2,4.9,30,0.00,,---,0.28,VWS V14.01,2013-03-31 20:53:00,
2013-03-31 16:58:00,68.7,36.1,29.47,WSW,245,0.0,2.7,30,0.00,,---,0.28,VWS V14.01,2013-03-31 20:58:00,
2013-03-31 17:03:00,68.4,37.4,29.47,WSW,246,0.0,0.0,32,0.00,,---,0.28,VWS V14.01,2013-03-31 21:03:00,
2013-03-31 17:08:00,68.0,37.1,29.47,WNW,303,0.0,2.2,32,0.00,,---,0.28,VWS V14.01,2013-03-31 21:08:00,
2013-03-31 17:13:00,67.6,38.3,29.47,WSW,243,3.1,4.0,34,0.00,,---,0.28,VWS V14.01,2013-03-31 21:13:00,
2013-03-31 17:18:00,65.7,39.4,29.47,WNW,291,0.0,0.0,38,0.04,,---,0.31,VWS V14.01,2013-03-31 21:18:00,
2013-03-31 17:23:00,63.9,39.1,29.47,WNW,291,0.0,0.0,40,0.04,,---,0.31,VWS V14.01,2013-03-31 21:23:00,
2013-03-31 17:28:00,62.8,40.0,29.47,WNW,291,0.0,0.0,43,0.04,,---,0.31,VWS V14.01,2013-03-31 21:28:00,
2013-03-31 17:33:00,62.2,41.2,29.47,WNW,291,0.0,0.0,46,0.04,,---,0.31,VWS V14.01,2013-03-31 21:33:00,
2013-03-31 17:38:00,61.9,42.0,29.47,WNW,291,0.0,0.0,48,0.04,,---,0.31,VWS V14.01,2013-03-31 21:38:00,
2013-03-31 17:43:00,61.7,43.4,29.47,WNW,291,0.0,0.0,51,0.04,,---,0.31,VWS V14.01,2013-03-31 21:43:00,
2013-03-31 17:48:00,61.7,43.9,29.47,WNW,291,0.0,0.0,52,0.04,,---,0.31,VWS V14.01,2013-03-31 21:48:00,
2013-03-31 17:53:00,61.7,44.4,29.47,WNW,291,0.0,0.0,53,0.04,,---,0.31,VWS V14.01,2013-03-31 21:53:00,
2013-03-31 17:58:00,61.9,45.5,29.47,WNW,291,0.0,0.0,55,0.04,,---,0.31,VWS V14.01,2013-03-31 21:58:00,
2013-03-31 18:03:00,61.9,45.5,29.47,WNW,291,0.0,0.0,55,0.04,,---,0.31,VWS V14.01,2013-03-31 22:03:00,
2013-03-31 18:08:00,62.1,46.2,29.47,WNW,291,0.0,0.0,56,0.04,,---,0.31,VWS V14.01,2013-03-31 22:08:00,
2013-03-31 18:13:00,62.1,46.2,29.47,WNW,291,0.0,0.0,56,0.04,,---,0.31,VWS V14.01,2013-03-31 22:13:00,
2013-03-31 18:18:00,62.1,46.7,29.47,WNW,291,0.0,0.0,57,0.00,,---,0.31,VWS V14.01,2013-03-31 22:18:00,
2013-03-31 18:23:00,61.9,46.5,29.47,WNW,291,0.0,0.0,57,0.00,,---,0.31,VWS V14.01,2013-03-31 22:23:00,
2013-03-31 18:28:00,62.1,47.1,29.47,WNW,291,0.0,0.0,58,0.00,,---,0.31,VWS V14.01,2013-03-31 22:28:00,
2013-03-31 18:33:00,62.1,47.1,29.47,WNW,291,0.0,0.0,58,0.00,,---,0.31,VWS V14.01,2013-03-31 22:33:00,
2013-03-31 18:38:00,61.9,47.0,29.47,WNW,291,0.0,0.0,58,0.00,,---,0.31,VWS V14.01,2013-03-31 22:38:00,
2013-03-31 18:43:00,61.9,47.4,29.47,WNW,291,0.0,0.0,59,0.00,,---,0.31,VWS V14.01,2013-03-31 22:43:00,
2013-03-31 18:48:00,61.7,47.2,29.47,WNW,291,0.0,0.0,59,0.00,,---,0.31,VWS V14.01,2013-03-31 22:48:00,
2013-03-31 18:53:00,61.7,47.7,29.47,WNW,291,0.0,0.0,60,0.00,,---,0.31,VWS V14.01,2013-03-31 22:53:00,
2013-03-31 18:58:00,61.5,47.5,29.47,WNW,291,0.0,0.0,60,0.00,,---,0.31,VWS V14.01,2013-03-31 22:58:00,
2013-03-31 19:03:00,61.3,47.8,29.47,WNW,291,0.0,0.0,61,0.00,,---,0.31,VWS V14.01,2013-03-31 23:03:00,
2013-03-31 19:08:00,61.3,47.8,29.47,WNW,291,0.0,0.0,61,0.00,,---,0.31,VWS V14.01,2013-03-31 23:08:00,
2013-03-31 19:13:00,61.2,48.0,29.47,WNW,291,0.0,0.0,62,0.00,,---,0.31,VWS V14.01,2013-03-31 23:13:00,
2013-03-31 19:18:00,61.0,47.9,29.47,WNW,291,0.0,0.0,62,0.00,,---,0.31,VWS V14.01,2013-03-31 23:18:00,
2013-03-31 19:23:00,61.0,48.3,29.47,WNW,291,0.0,0.0,63,0.00,,---,0.31,VWS V14.01,2013-03-31 23:23:00,
2013-03-31 19:28:00,60.8,48.1,29.47,WNW,291,0.0,0.0,63,0.00,,---,0.31,VWS V14.01,2013-03-31 23:28:00,
2013-03-31 19:33:00,60.6,48.4,29.47,WNW,291,0.0,0.0,64,0.00,,---,0.31,VWS V14.01,2013-03-31 23:33:00,
2013-03-31 19:38:00,60.4,48.2,29.47,WNW,291,0.0,0.0,64,0.00,,---,0.31,VWS V14.01,2013-03-31 23:38:00,
2013-03-31 19:43:00,60.3,48.5,29.47,WNW,291,0.0,0.0,65,0.00,,---,0.31,VWS V14.01,2013-03-31 23:43:00,
2013-03-31 19:48:00,60.3,48.5,29.47,WNW,291,0.0,0.0,65,0.00,,---,0.31,VWS V14.01,2013-03-31 23:48:00,
2013-03-31 19:53:00,60.1,48.7,29.47,WNW,291,0.0,0.0,66,0.00,,---,0.31,VWS V14.01,2013-03-31 23:53:00,
2013-03-31 19:58:00,60.1,48.7,29.47,WNW,291,0.0,0.0,66,0.00,,---,0.31,VWS V14.01,2013-03-31 23:58:00,
2013-03-31 20:03:00,59.9,48.5,29.47,WNW,291,0.0,0.0,66,0.00,,---,0.31,VWS V14.01,2013-04-01 00:03:00,
2013-03-31 20:08:00,59.7,48.4,29.47,WNW,291,0.0,0.0,66,0.00,,---,0.31,VWS V14.01,2013-04-01 00:08:00,
2013-03-31 20:13:00,59.5,48.6,29.47,WNW,291,0.0,0.0,67,0.00,,---,0.31,VWS V14.01,2013-04-01 00:13:00,
2013-03-31 20:18:00,59.7,48.8,29.47,West,270,0.0,2.7,67,0.00,,---,0.31,VWS V14.01,2013-04-01 00:18:00,
2013-03-31 20:23:00,59.7,48.8,29.47,WSW,245,0.0,0.0,67,0.00,,---,0.31,VWS V14.01,2013-04-01 00:23:00,
2013-03-31 20:28:00,59.5,48.2,29.50,WSW,252,0.0,3.6,66,0.00,,---,0.31,VWS V14.01,2013-04-01 00:28:00,
2013-03-31 20:33:00,59.2,47.0,29.50,West,271,3.6,3.6,64,0.00,,---,0.31,VWS V14.01,2013-04-01 00:33:00,
2013-03-31 20:38:00,58.8,46.7,29.50,NW,310,0.0,0.0,64,0.00,,---,0.31,VWS V14.01,2013-04-01 00:38:00,
2013-03-31 20:43:00,58.5,45.9,29.50,West,267,2.7,2.7,63,0.04,,---,0.35,VWS V14.01,2013-04-01 00:43:00,
2013-03-31 20:48:00,58.5,45.9,29.50,ESE,114,0.0,4.0,63,0.04,,---,0.35,VWS V14.01,2013-04-01 00:48:00,
2013-03-31 20:53:00,58.3,45.8,29.50,WSW,245,3.1,5.8,63,0.04,,---,0.35,VWS V14.01,2013-04-01 00:53:00,
2013-03-31 20:58:00,58.1,46.0,29.53,NW,310,0.0,0.0,64,0.04,,---,0.35,VWS V14.01,2013-04-01 00:58:00,
2013-03-31 21:03:00,58.1,46.0,29.53,North,353,0.0,0.0,64,0.04,,---,0.35,VWS V14.01,2013-04-01 01:03:00,
2013-03-31 21:08:00,57.9,45.8,29.53,NW,318,0.0,0.0,64,0.04,,---,0.35,VWS V14.01,2013-04-01 01:08:00,
2013-03-31 21:13:00,57.7,45.7,29.53,NE,48,0.0,0.0,64,0.04,,---,0.35,VWS V14.01,2013-04-01 01:13:00,
2013-03-31 21:18:00,57.6,45.5,29.53,NE,47,0.0,0.0,64,0.04,,---,0.35,VWS V14.01,2013-04-01 01:18:00,
2013-03-31 21:23:00,57.2,45.2,29.53,NNE,17,0.0,0.0,64,0.04,,---,0.35,VWS V14.01,2013-04-01 01:23:00,
2013-03-31 21:28:00,57.0,45.4,29.50,NNE,17,0.0,0.0,65,0.04,,---,0.35,VWS V14.01,2013-04-01 01:28:00,
2013-03-31 21:33:00,56.8,45.2,29.50,NNE,17,0.0,0.0,65,0.04,,---,0.35,VWS V14.01,2013-04-01 01:33:00,
2013-03-31 21:38:00,56.7,45.0,29.50,NNE,17,0.0,0.0,65,0.04,,---,0.35,VWS V14.01,2013-04-01 01:38:00,
2013-03-31 21:43:00,56.5,45.3,29.50,NNE,17,0.0,0.0,66,0.00,,---,0.35,VWS V14.01,2013-04-01 01:43:00,
2013-03-31 21:48:00,56.3,45.1,29.50,NNE,17,0.0,0.0,66,0.00,,---,0.35,VWS V14.01,2013-04-01 01:48:00,
2013-03-31 21:53:00,56.3,45.1,29.50,NNE,17,0.0,0.0,66,0.00,,---,0.35,VWS V14.01,2013-04-01 01:53:00,
2013-03-31 21:58:00,56.1,44.9,29.50,NNE,17,0.0,0.0,66,0.00,,---,0.35,VWS V14.01,2013-04-01 01:58:00,
2013-03-31 22:03:00,55.9,45.2,29.50,NNE,17,0.0,0.0,67,0.00,,---,0.35,VWS V14.01,2013-04-01 02:03:00,
2013-03-31 22:08:00,55.9,45.2,29.50,NNE,17,0.0,0.0,67,0.00,,---,0.35,VWS V14.01,2013-04-01 02:08:00,
2013-03-31 22:13:00,55.8,45.0,29.50,NNE,17,0.0,0.0,67,0.00,,---,0.35,VWS V14.01,2013-04-01 02:13:00,
2013-03-31 22:18:00,55.6,44.8,29.50,NNE,17,0.0,0.0,67,0.00,,---,0.35,VWS V14.01,2013-04-01 02:18:00,
2013-03-31 22:23:00,55.6,45.2,29.50,NNE,17,0.0,0.0,68,0.00,,---,0.35,VWS V14.01,2013-04-01 02:23:00,
2013-03-31 22:28:00,55.6,45.2,29.50,NNE,17,0.0,0.0,68,0.00,,---,0.35,VWS V14.01,2013-04-01 02:28:00,
2013-03-31 22:33:00,55.6,45.6,29.50,NNE,17,0.0,0.0,69,0.00,,---,0.35,VWS V14.01,2013-04-01 02:33:00,
2013-03-31 22:38:00,55.6,45.6,29.50,NNE,17,0.0,0.0,69,0.00,,---,0.35,VWS V14.01,2013-04-01 02:38:00,
2013-03-31 22:43:00,55.6,46.0,29.50,NNE,17,0.0,0.0,70,0.00,,---,0.35,VWS V14.01,2013-04-01 02:43:00,
2013-03-31 22:48:00,55.9,46.7,29.50,NNE,17,0.0,0.0,71,0.00,,---,0.35,VWS V14.01,2013-04-01 02:48:00,
2013-03-31 22:53:00,55.9,46.7,29.50,NNE,17,0.0,0.0,71,0.00,,---,0.35,VWS V14.01,2013-04-01 02:53:00,
2013-03-31 22:58:00,55.9,47.1,29.50,NNE,17,0.0,0.0,72,0.00,,---,0.35,VWS V14.01,2013-04-01 02:58:00,
2013-03-31 23:03:00,55.9,47.1,29.50,NNE,17,0.0,0.0,72,0.00,,---,0.35,VWS V14.01,2013-04-01 03:03:00,
2013-03-31 23:08:00,55.9,47.1,29.50,NNE,17,0.0,0.0,72,0.00,,---,0.35,VWS V14.01,2013-04-01 03:08:00,
2013-03-31 23:13:00,55.8,46.9,29.50,NNE,17,0.0,0.0,72,0.00,,---,0.35,VWS V14.01,2013-04-01 03:13:00,
2013-03-31 23:18:00,55.8,46.9,29.50,NNE,17,0.0,0.0,72,0.00,,---,0.35,VWS V14.01,2013-04-01 03:18:00,
2013-03-31 23:23:00,55.6,47.1,29.50,NNE,17,0.0,0.0,73,0.00,,---,0.35,VWS V14.01,2013-04-01 03:23:00,
2013-03-31 23:28:00,55.4,46.9,29.50,NNE,17,0.0,0.0,73,0.00,,---,0.35,VWS V14.01,2013-04-01 03:28:00,
2013-03-31 23:33:00,55.2,46.7,29.50,NNE,17,0.0,0.0,73,0.00,,---,0.35,VWS V14.01,2013-04-01 03:33:00,
2013-03-31 23:38:00,55.2,46.7,29.50,NNE,17,0.0,0.0,73,0.00,,---,0.35,VWS V14.01,2013-04-01 03:38:00,
2013-03-31 23:43:00,55.0,46.5,29.47,NNE,17,0.0,0.0,73,0.00,,---,0.35,VWS V14.01,2013-04-01 03:43:00,
2013-03-31 23:48:00,55.0,46.5,29.47,NNE,17,0.0,0.0,73,0.00,,---,0.35,VWS V14.01,2013-04-01 03:48:00,
2013-03-31 23:53:00,55.0,46.5,29.47,NNE,17,0.0,0.0,73,0.00,,---,0.35,VWS V14.01,2013-04-01 03:53:00,
2013-03-31 23:58:00,54.9,46.4,29.50,NNE,17,0.0,0.0,73,0.00,,---,0.35,VWS V14.01,2013-04-01 03:58:00,